GW0774 Weather Reports


Display with metric or nautical units.
time (UTC)temp
F
wind
direction
speed
MPH
gust
MPH
rain 1hr
in
rain 24hr
in
rain mn
in
humidity
%
barometer
mb
20221127015537 63 247 5.0 10.0 0.00 0.00 0.00 82 999.6
20221127015036 64 272 6.0 9.0 0.00 0.00 0.00 80 999.3
20221127014545 65 257 5.0 9.0 0.00 0.00 0.00 79 999.2
20221127014038 66 265 4.0 8.0 0.00 0.00 0.00 79 999.1
20221127013537 67 240 4.0 7.0 0.00 0.00 0.00 76 999.1
20221127013105 67 216 3.0 8.0 0.00 0.00 0.00 75 999.2
20221127012539 68 194 2.0 8.0 0.00 0.00 0.00 74 999.0
20221127012037 69 240 3.0 6.0 0.00 0.00 0.00 75 999.0
20221127011551 69 212 3.0 6.0 0.00 0.00 0.00 76 999.1
20221127011041 69 231 2.0 6.0 0.00 0.00 0.00 78 999.1
20221127010541 68 227 3.0 6.0 0.00 0.00 0.00 75 999.2
20221127010056 68 215 3.0 7.0 0.00 0.00 0.00 75 999.3
20221127005540 68 221 2.0 7.0 0.00 0.00 0.00 73 999.4
20221127005042 69 238 2.0 7.0 0.00 0.00 0.00 69 999.5
20221127004546 70 184 3.0 7.0 0.00 0.00 0.00 72 999.7
20221127004040 69 249 3.0 7.0 0.00 0.00 0.00 68 999.7
20221127003540 69 219 3.0 5.0 0.00 0.00 0.00 70 999.7
20221127003042 69 244 3.0 8.0 0.00 0.00 0.00 71 999.7
20221127002538 69 225 3.0 8.0 0.00 0.00 0.00 68 999.8
20221127002040 69 232 3.0 8.0 0.00 0.00 0.00 68 1000.0
20221127001547 69 234 3.0 8.0 0.00 0.00 0.00 71 1000.0
20221127001041 70 244 3.0 8.0 0.00 0.00 0.00 69 1000.0
20221127000540 70 230 4.0 8.0 0.00 0.00 0.00 66 1000.1
20221127000119 69 298 3.0 8.0 0.00 0.00 0.00 66 1000.0
20221126235544 69 279 2.0 8.0 0.00 0.00 0.00 65 1000.2
20221126235039 69 246 4.0 8.0 0.00 0.00 0.00 66 1000.2
20221126234549 69 253 3.0 8.0 0.00 0.00 0.00 66 1000.3
20221126234044 70 333 2.0 6.0 0.00 0.00 0.00 63 1000.5
20221126233540 70 254 1.0 6.0 0.00 0.00 0.00 66 1000.5
20221126233046 69 202 1.0 6.0 0.00 0.00 0.00 65 1000.5
20221126232540 69 344 3.0 10.0 0.00 0.00 0.00 65 1000.5
20221126232043 68 291 3.0 10.0 0.00 0.00 0.00 64 1000.5
20221126231544 69 250 3.0 6.0 0.00 0.00 0.00 65 1000.6
20221126231040 70 225 1.0 8.0 0.00 0.00 0.00 65 1000.6
20221126230540 70 68 2.0 10.0 0.00 0.00 0.00 64 1000.6
20221126230057 70 204 3.0 10.0 0.00 0.00 0.00 61 1000.7
20221126225540 70 309 2.0 9.0 0.00 0.00 0.00 59 1000.8
20221126225040 71 246 2.0 8.0 0.00 0.00 0.00 60 1000.8
20221126224542 72 72 2.0 8.0 0.00 0.00 0.00 56 1000.8
20221126224040 72 236 3.0 8.0 0.00 0.00 0.00 60 1000.8
20221126223540 73 308 2.0 6.0 0.00 0.00 0.00 62 1000.9
20221126223102 72 55 2.0 6.0 0.00 0.00 0.00 59 1000.9
20221126222537 72 287 2.0 9.0 0.00 0.00 0.00 59 1000.9
20221126222041 72 95 3.0 9.0 0.00 0.00 0.00 59 1000.9
20221126221542 72 328 3.0 9.0 0.00 0.00 0.00 59 1001.0
20221126221039 72 246 1.0 9.0 0.00 0.00 0.00 66 1000.9
20221126220540 71 103 2.0 9.0 0.00 0.00 0.00 61 1001.0
20221126220045 71 355 3.0 9.0 0.00 0.00 0.00 59 1000.9
20221126215538 71 260 2.0 6.0 0.00 0.00 0.00 61 1001.0
20221126215037 71 63 2.0 6.0 0.00 0.00 0.00 63 1001.1
20221126214541 70 279 1.0 5.0 0.00 0.00 0.00 64 1001.1
20221126214037 70 94 1.0 5.0 0.00 0.00 0.00 63 1001.3
20221126213540 70 238 1.0 5.0 0.00 0.00 0.00 67 1001.3
20221126213103 70 203 1.0 4.0 0.00 0.00 0.00 65 1001.5
20221126212537 69 252 1.0 8.0 0.00 0.00 0.00 67 1001.5
20221126212041 69 88 2.0 8.0 0.00 0.00 0.00 66 1001.6
20221126211550 69 95 2.0 6.0 0.00 0.00 0.00 62 1001.6
20221126211041 69 198 2.0 6.0 0.00 0.00 0.00 67 1001.6
20221126210540 69 58 2.0 4.0 0.00 0.00 0.00 65 1001.7
20221126210051 69 317 1.0 4.0 0.00 0.00 0.00 65 1001.9
20221126205540 69 288 1.0 3.0 0.00 0.07 0.00 66 1002.1
20221126205040 68 263 1.0 5.0 0.00 0.07 0.00 67 1002.0
20221126204555 68 186 1.0 8.0 0.00 0.07 0.00 67 1002.2
20221126204040 68 336 1.0 8.0 0.00 0.07 0.00 67 1002.2
20221126203537 67 48 2.0 4.0 0.00 0.07 0.00 65 1002.1
20221126203051 66 32 1.0 5.0 0.00 0.07 0.00 69 1002.2
20221126202537 65 28 1.0 5.0 0.00 0.07 0.00 71 1002.3
20221126202037 65 242 1.0 5.0 0.00 0.07 0.00 69 1002.3
20221126201601 65 132 0.0 3.0 0.00 0.07 0.00 70 1002.3
20221126201037 65 273 0.0 3.0 0.00 0.07 0.00 71 1002.3
20221126200537 65 71 0.0 2.0 0.00 0.07 0.00 72 1002.3
20221126200052 64 252 0.0 5.0 0.00 0.07 0.00 71 1002.3
20221126195538 63 277 1.0 5.0 0.00 0.07 0.00 72 1002.3
20221126195040 63 36 1.0 5.0 0.00 0.07 0.00 71 1002.3
20221126194550 62 84 1.0 4.0 0.00 0.07 0.00 72 1002.3
20221126194041 62 99 1.0 6.0 0.00 0.07 0.00 73 1002.3
20221126193537 61 79 1.0 6.0 0.00 0.07 0.00 74 1002.4
20221126193052 61 65 0.0 5.0 0.00 0.07 0.00 76 1002.5
20221126192536 60 103 2.0 5.0 0.00 0.07 0.00 75 1002.5
20221126192037 60 88 1.0 3.0 0.00 0.07 0.00 75 1002.5
20221126191552 59 83 0.0 3.0 0.00 0.07 0.00 74 1002.7
20221126191040 59 0 0.0 0.0 0.00 0.07 0.00 76 1002.5
20221126190540 58 0 0.0 0.0 0.00 0.07 0.00 78 1002.6
20221126190054 58 0 0.0 0.0 0.00 0.07 0.00 79 1002.6
20221126185540 57 0 0.0 0.0 0.00 0.07 0.00 80 1002.6
20221126185037 57 0 0.0 0.0 0.00 0.07 0.00 81 1002.7
20221126184555 56 0 0.0 0.0 0.00 0.07 0.00 81 1002.7
20221126184041 56 0 0.0 0.0 0.00 0.07 0.00 80 1002.7
20221126183542 56 0 0.0 0.0 0.00 0.07 0.00 80 1002.6
20221126183045 56 0 0.0 0.0 0.00 0.07 0.00 81 1002.7
20221126182541 56 0 0.0 0.0 0.00 0.07 0.00 82 1002.6
20221126182040 55 0 0.0 0.0 0.00 0.07 0.00 83 1002.7
20221126181544 55 0 0.0 0.0 0.00 0.07 0.00 84 1002.8
20221126181040 55 0 0.0 0.0 0.00 0.07 0.00 84 1002.6
20221126180537 55 0 0.0 0.0 0.00 0.07 0.00 85 1002.7
20221126180051 55 0 0.0 0.0 0.00 0.07 0.00 85 1002.8
20221126175539 54 0 0.0 0.0 0.00 0.07 0.00 86 1002.8
20221126175040 54 0 0.0 0.0 0.00 0.07 0.00 87 1002.6
20221126174555 53 0 0.0 0.0 0.00 0.07 0.00 87 1002.7
20221126174039 53 0 0.0 0.0 0.00 0.07 0.00 88 1002.7
20221126173537 53 0 0.0 0.0 0.00 0.07 0.00 89 1002.6
20221126173056 52 0 0.0 0.0 0.00 0.07 0.00 90 1002.8
20221126172542 52 0 0.0 0.0 0.00 0.07 0.00 91 1002.7
20221126172037 52 0 0.0 0.0 0.00 0.07 0.00 91 1002.7
20221126171542 52 0 0.0 0.0 0.00 0.07 0.00 91 1002.8
20221126171040 52 0 0.0 0.0 0.00 0.07 0.00 91 1002.7
20221126170540 52 0 0.0 0.0 0.00 0.07 0.00 91 1002.7
20221126170041 52 0 0.0 0.0 0.00 0.07 0.00 90 1002.8
20221126165538 52 0 0.0 0.0 0.00 0.07 0.00 90 1002.8
20221126165040 53 0 0.0 0.0 0.00 0.07 0.00 90 1002.8
20221126164545 53 0 0.0 0.0 0.00 0.07 0.00 90 1002.8
20221126164042 53 0 0.0 0.0 0.00 0.07 0.00 90 1002.7
20221126163537 53 0 0.0 0.0 0.00 0.07 0.00 90 1002.8
20221126163043 53 0 0.0 0.0 0.00 0.07 0.00 90 1002.7
20221126162537 53 0 0.0 0.0 0.00 0.07 0.00 91 1002.7
20221126162037 53 0 0.0 0.0 0.00 0.07 0.00 91 1002.8
20221126161548 53 0 0.0 0.0 0.00 0.07 0.00 91 1002.7
20221126161037 53 0 0.0 0.0 0.00 0.07 0.00 92 1002.7
20221126160537 53 0 0.0 0.0 0.00 0.07 0.00 92 1002.7
20221126160046 52 0 0.0 0.0 0.00 0.07 0.00 93 1002.8
20221126155540 52 0 0.0 0.0 0.00 0.07 0.00 93 1002.8
20221126155043 52 0 0.0 0.0 0.00 0.07 0.00 93 1002.9
20221126154556 52 0 0.0 0.0 0.00 0.07 0.00 94 1002.9
20221126154040 52 0 0.0 0.0 0.00 0.07 0.00 94 1003.0
20221126153540 51 0 0.0 0.0 0.00 0.07 0.00 94 1003.0
20221126153048 51 0 0.0 0.0 0.00 0.07 0.00 94 1003.0
20221126152541 51 0 0.0 0.0 0.00 0.07 0.00 94 1003.1
20221126152040 51 0 0.0 0.0 0.00 0.07 0.00 94 1003.1
20221126151548 51 0 0.0 0.0 0.00 0.07 0.00 94 1003.2
20221126151041 51 0 0.0 0.0 0.00 0.07 0.00 94 1003.3
20221126150542 51 0 0.0 0.0 0.00 0.07 0.00 94 1003.3
20221126150047 51 0 0.0 0.0 0.00 0.07 0.00 94 1003.2
20221126145537 51 0 0.0 0.0 0.00 0.07 0.00 94 1003.3
20221126145040 51 0 0.0 0.0 0.00 0.07 0.00 94 1003.4
20221126144600 51 0 0.0 0.0 0.00 0.07 0.00 94 1003.4
20221126144043 51 0 0.0 0.0 0.00 0.07 0.00 94 1003.3
20221126143540 51 0 0.0 0.0 0.00 0.07 0.00 95 1003.4
20221126143057 51 0 0.0 0.0 0.00 0.07 0.00 95 1003.4
20221126142540 51 0 0.0 0.0 0.00 0.07 0.00 95 1003.4
20221126142040 51 0 0.0 0.0 0.00 0.07 0.00 95 1003.6
20221126141545 51 0 0.0 0.0 0.00 0.07 0.00 95 1003.7
20221126141040 51 0 0.0 0.0 0.00 0.07 0.00 95 1003.7
20221126140540 50 0 0.0 0.0 0.00 0.07 0.00 95 1003.8
20221126140043 50 0 0.0 0.0 0.00 0.07 0.00 95 1003.8
20221126135541 50 0 0.0 0.0 0.00 0.07 0.00 95 1003.9
20221126135042 50 0 0.0 0.0 0.00 0.07 0.00 95 1003.9
20221126134552 50 0 0.0 0.0 0.00 0.07 0.00 95 1004.0
20221126134037 50 0 0.0 0.0 0.00 0.07 0.00 95 1003.9
20221126133541 50 0 0.0 0.0 0.00 0.07 0.00 96 1004.0
20221126133050 50 0 0.0 0.0 0.00 0.07 0.00 96 1003.9
20221126132540 49 0 0.0 0.0 0.00 0.07 0.00 96 1004.1
20221126132040 49 0 0.0 0.0 0.00 0.07 0.00 95 1004.2
20221126131639 49 0 0.0 0.0 0.00 0.07 0.00 94 1004.2
20221126131041 49 0 0.0 0.0 0.00 0.07 0.00 94 1004.2
20221126130539 49 0 0.0 0.0 0.00 0.07 0.00 94 1004.2
20221126130103 49 0 0.0 1.0 0.00 0.07 0.00 94 1004.3
20221126125540 50 0 0.0 1.0 0.00 0.07 0.00 94 1004.3
20221126125040 50 252 0.0 0.0 0.00 0.07 0.00 94 1004.4
20221126124559 50 0 0.0 0.0 0.00 0.07 0.00 95 1004.4
20221126124040 50 0 0.0 0.0 0.00 0.07 0.00 94 1004.4
20221126123543 50 0 0.0 0.0 0.00 0.07 0.00 94 1004.3
20221126123054 50 0 0.0 0.0 0.00 0.07 0.00 94 1004.4
20221126122541 50 0 0.0 0.0 0.00 0.07 0.00 94 1004.4
20221126122040 50 0 0.0 0.0 0.00 0.07 0.00 94 1004.5
20221126121558 50 0 0.0 0.0 0.00 0.07 0.00 94 1004.4
20221126121041 50 0 0.0 0.0 0.00 0.07 0.00 94 1004.5
20221126120540 50 0 0.0 0.0 0.00 0.07 0.00 93 1004.5
20221126120059 51 0 0.0 0.0 0.00 0.07 0.00 93 1004.6
20221126115540 51 0 0.0 0.0 0.00 0.07 0.00 93 1004.5
20221126115042 51 0 0.0 0.0 0.00 0.07 0.00 93 1004.6
20221126114558 51 0 0.0 0.0 0.00 0.07 0.00 93 1004.7
20221126114040 51 0 0.0 1.0 0.00 0.07 0.00 93 1004.7
20221126113541 52 0 0.0 1.0 0.00 0.07 0.00 93 1004.6
20221126113050 52 0 0.0 0.0 0.00 0.07 0.00 93 1004.7
20221126112536 52 0 0.0 0.0 0.00 0.07 0.00 92 1004.6
20221126112041 52 0 0.0 0.0 0.00 0.07 0.00 92 1004.6
20221126111552 53 0 0.0 0.0 0.00 0.07 0.00 92 1004.6
20221126111036 53 0 0.0 1.0 0.00 0.07 0.00 92 1004.5
20221126110543 53 0 0.0 1.0 0.00 0.07 0.00 92 1004.5
20221126110100 53 0 0.0 1.0 0.00 0.07 0.00 92 1004.6
20221126105541 53 0 0.0 1.0 0.00 0.07 0.07 92 1004.6
20221126105041 54 0 0.0 1.0 0.00 0.07 0.07 92 1004.5
20221126104549 54 0 0.0 1.0 0.00 0.07 0.07 92 1004.5
20221126104041 54 0 0.0 1.0 0.00 0.07 0.07 92 1004.5
20221126103540 54 251 0.0 0.0 0.00 0.07 0.07 92 1004.4
20221126103052 54 0 0.0 1.0 0.00 0.07 0.07 92 1004.4
20221126102538 55 0 0.0 1.0 0.00 0.07 0.07 92 1004.5
20221126102039 55 0 0.0 1.0 0.00 0.07 0.07 91 1004.5
20221126101548 55 0 0.0 1.0 0.00 0.07 0.07 91 1004.5
20221126101040 55 0 0.0 1.0 0.00 0.07 0.07 91 1004.5
20221126100540 55 0 0.0 1.0 0.00 0.07 0.07 91 1004.5
20221126100102 56 0 0.0 1.0 0.00 0.07 0.07 91 1004.6
20221126095540 56 0 0.0 1.0 0.00 0.07 0.07 91 1004.6
20221126095040 56 251 0.0 1.0 0.00 0.07 0.07 91 1004.5
20221126094555 56 0 0.0 1.0 0.00 0.07 0.07 91 1004.5
20221126094041 56 252 0.0 1.0 0.00 0.07 0.07 91 1004.4
20221126093541 56 252 0.0 1.0 0.00 0.07 0.07 91 1004.5
20221126093100 56 0 0.0 0.0 0.00 0.07 0.07 90 1004.4
20221126092540 56 0 0.0 0.0 0.00 0.07 0.07 89 1004.5
20221126092041 56 0 0.0 0.0 0.00 0.07 0.07 89 1004.5
20221126091556 56 0 0.0 1.0 0.00 0.07 0.07 89 1004.5
20221126091040 57 0 0.0 1.0 0.00 0.07 0.07 89 1004.5
20221126090540 57 0 0.0 2.0 0.00 0.07 0.07 88 1004.4
20221126090121 57 0 0.0 2.0 0.00 0.07 0.07 88 1004.3
20221126085539 57 251 1.0 3.0 0.00 0.07 0.07 89 1004.3
20221126085043 57 0 1.0 3.0 0.00 0.07 0.07 89 1004.3
20221126084552 57 276 1.0 3.0 0.00 0.07 0.07 89 1004.3
20221126084038 57 265 1.0 3.0 0.00 0.07 0.07 89 1004.2
20221126083541 57 317 1.0 5.0 0.00 0.07 0.07 89 1004.1
20221126083048 57 279 1.0 5.0 0.00 0.07 0.07 89 1004.1
20221126082540 57 275 0.0 4.0 0.00 0.07 0.07 88 1004.0
20221126082038 57 265 1.0 4.0 0.00 0.07 0.07 88 1004.0
20221126081603 57 307 1.0 4.0 0.00 0.07 0.07 88 1004.1
20221126081040 58 266 1.0 4.0 0.00 0.07 0.07 88 1004.0
20221126080540 58 290 2.0 4.0 0.00 0.07 0.07 88 1004.0
20221126080046 58 267 1.0 4.0 0.00 0.07 0.07 88 1003.9
20221126075541 58 272 2.0 4.0 0.00 0.07 0.07 87 1004.0
20221126075040 58 274 1.0 5.0 0.00 0.07 0.07 87 1003.9
20221126074618 58 254 2.0 5.0 0.00 0.07 0.07 87 1003.9
20221126074041 58 256 1.0 9.0 0.00 0.07 0.07 86 1003.7
20221126073538 59 253 2.0 9.0 0.00 0.07 0.07 85 1003.9
20221126073100 59 238 3.0 9.0 0.00 0.07 0.07 85 1003.7
20221126072537 59 260 3.0 7.0 0.00 0.07 0.07 85 1003.8
20221126072037 59 313 3.0 9.0 0.00 0.07 0.07 85 1003.6
20221126071554 59 268 3.0 9.0 0.00 0.07 0.07 85 1003.7
20221126071042 59 263 4.0 9.0 0.00 0.07 0.07 84 1003.7
20221126070541 60 259 5.0 10.0 0.00 0.07 0.07 84 1003.7
20221126070052 60 279 4.0 10.0 0.00 0.07 0.07 84 1003.6
20221126065536 60 286 5.0 11.0 0.00 0.07 0.07 83 1003.6
20221126065039 60 250 4.0 11.0 0.00 0.07 0.07 83 1003.6
20221126064545 61 292 5.0 11.0 0.00 0.07 0.07 82 1003.6
20221126064038 61 279 6.0 11.0 0.00 0.07 0.07 82 1003.6
20221126063539 61 302 5.0 11.0 0.00 0.07 0.07 81 1003.5
20221126063056 61 300 5.0 13.0 0.00 0.07 0.07 80 1003.5
20221126062544 61 293 6.0 13.0 0.00 0.07 0.07 79 1003.5
20221126062043 62 270 6.0 13.0 0.00 0.07 0.07 78 1003.5
20221126061546 62 267 5.0 13.0 0.00 0.07 0.07 78 1003.6
20221126061039 62 268 7.0 15.0 0.00 0.07 0.07 77 1003.4
20221126060537 62 240 6.0 15.0 0.00 0.07 0.07 78 1003.5
20221126060047 62 250 4.0 12.0 0.00 0.07 0.07 79 1003.4
20221126055538 62 249 7.0 12.0 0.00 0.07 0.07 78 1003.5
20221126055039 62 276 6.0 14.0 0.00 0.07 0.07 78 1003.5
20221126054550 62 254 6.0 18.0 0.00 0.07 0.07 78 1003.4
20221126054041 62 284 7.0 18.0 0.00 0.07 0.07 77 1003.5
20221126053538 62 292 7.0 18.0 0.00 0.07 0.07 76 1003.5
20221126053058 62 292 8.0 15.0 0.00 0.07 0.07 75 1003.5
20221126052538 63 278 8.0 14.0 0.00 0.07 0.07 73 1003.3
20221126052038 64 252 7.0 14.0 0.00 0.07 0.07 73 1003.4
20221126051544 63 294 5.0 14.0 0.00 0.07 0.07 76 1003.2
20221126051039 63 284 5.0 16.0 0.00 0.07 0.07 77 1003.3
20221126050538 62 297 7.0 16.0 0.00 0.07 0.07 77 1003.3
20221126050106 62 292 6.0 13.0 0.00 0.07 0.07 77 1003.4
20221126045539 62 274 7.0 13.0 0.00 0.07 0.07 75 1003.3
20221126045040 62 283 8.0 13.0 0.00 0.07 0.07 74 1003.3
20221126044544 62 294 8.0 14.0 0.00 0.07 0.07 74 1003.3
20221126044039 63 301 8.0 17.0 0.00 0.07 0.07 74 1003.3
20221126043537 64 284 9.0 17.0 0.00 0.07 0.07 74 1003.1
20221126043055 64 317 7.0 14.0 0.00 0.07 0.07 74 1003.2
20221126042538 65 286 7.0 14.0 0.00 0.07 0.07 73 1003.1
20221126042039 65 306 6.0 14.0 0.00 0.07 0.07 75 1003.2
20221126041547 64 251 9.0 16.0 0.00 0.07 0.07 76 1003.2
20221126041039 63 301 8.0 16.0 0.00 0.07 0.07 75 1003.1
20221126040536 64 279 9.0 17.0 0.00 0.07 0.07 73 1003.2
20221126040101 65 258 7.0 17.0 0.00 0.07 0.07 73 1003.3
20221126035538 65 281 9.0 16.0 0.00 0.07 0.07 71 1003.4
20221126035038 65 293 9.0 16.0 0.00 0.07 0.07 71 1003.4
20221126034544 65 245 7.0 17.0 0.00 0.07 0.07 73 1003.4
20221126034043 65 277 8.0 17.0 0.00 0.07 0.07 70 1003.4
20221126033543 66 286 7.0 17.0 0.00 0.07 0.07 74 1003.5
20221126033057 65 246 8.0 18.0 0.00 0.07 0.07 71 1003.3
20221126032537 65 313 8.0 18.0 0.00 0.07 0.07 73 1003.4
20221126032040 65 267 9.0 18.0 0.00 0.07 0.07 71 1003.3
20221126031541 65 257 9.0 18.0 0.00 0.07 0.07 70 1003.3
20221126031042 65 331 8.0 15.0 0.00 0.07 0.07 73 1003.4
20221126030540 64 239 7.0 16.0 0.00 0.07 0.07 74 1003.4
20221126030041 64 315 8.0 19.0 0.00 0.07 0.07 71 1003.4
20221126025542 65 275 9.0 19.0 0.00 0.07 0.07 69 1003.3
20221126025040 64 270 10.0 19.0 0.00 0.07 0.07 67 1003.3
20221126024549 65 247 11.0 19.0 0.00 0.07 0.07 68 1003.2
20221126024039 64 280 9.0 16.0 0.00 0.07 0.07 70 1003.4
20221126023540 65 264 7.0 16.0 0.00 0.07 0.07 70 1003.3
20221126023041 65 271 8.0 17.0 0.00 0.07 0.07 71 1003.4
20221126022541 65 298 8.0 17.0 0.00 0.07 0.07 71 1003.5
20221126022039 64 284 9.0 18.0 0.00 0.07 0.07 71 1003.5
20221126021552 65 317 10.0 23.0 0.00 0.07 0.07 69 1003.7
20221126021040 65 249 8.0 23.0 0.00 0.07 0.07 69 1003.7
20221126020540 65 292 8.0 23.0 0.00 0.07 0.07 68 1003.7
20221126020043 65 258 9.0 19.0 0.00 0.07 0.07 68 1003.5